{"data":{"norad_id":50805,"intl_designator":"2022-001C","name":"STARLINK-3333","alt_names":[],"object_type":"PAYLOAD","status":"ACTIVE","operator":null,"country":"US","launch_date":"2022-01-06","launch_site_code":"AFETR","launch_vehicle":null,"mission":null,"orbit_class":"UNKNOWN","rcs_meters":null,"size_class":null,"mass_kg":null,"dimensions":null,"purposes":["comms"],"wikipedia_slug":null,"has_3d_model":false,"image_url":null,"decayed_at":null,"tle_current":{"epoch":"2026-09-19T18:43:46.729344Z","epoch_age_seconds":107535,"freshness":"FRESH","line1":"1 50805U 22001C   26262.78040196  .00019756  00000+0  83120-3 0  9990","line2":"2 50805  53.1399   2.3598 0002799 315.1812  44.8959 15.23404268259915","mean_motion":15.23404268,"eccentricity":0.0002799,"inclination_deg":53.1399,"raan_deg":2.3598,"arg_perigee_deg":315.1812,"mean_anomaly_deg":44.8959,"bstar":0.0008312,"rev_number":25991,"period_min":94.525138877975,"perigee_km":493.65733837855,"apogee_km":497.50524587848,"semimajor_km":6873.7182921285,"source":"CELESTRAK","updated_at":"2026-09-20T09:00:39.575142Z"}}}